Content
SEND FEEDBACK

Daily
Averages
Monthly
Summary
United States of America

MANGILAO, GUAM


Home > North America > United States > Guam
Elevation: 60 feet     Latitude: 13 27N     Longitude: 144 49E

WEATHER
 
SELECT A DAY
Number of Records: 342,166;   Date Range: 1/1/95 - 8/12/14
 
SHARE

PRINT THIS DATA

[ ← Previous Day ]
WEATHER ALMANAC - FEBRUARY 17, 2013
[ Next Day → ]
[ °C ]   °F
Weather ElementAverageHighLow
Temperature76.1 °F84 °F (11:55 am)73.4 °F (5:37 pm)
Dewpoint72.3 °F73.8 °F (4:55 pm)69.8 °F (8:31 am)
Humidity88.4 %100 % (6:07 pm)64 % (10:55 am)
Barometer29.79 in29.83 in (8:55 am)29.74 in (3:16 pm)
Wind Speed22 mph31.1 mph (11:26 pm)
Wind Gust36.8 mph (5:59 pm)
Weather ElementAverage
Visibility7.5 mi
Wind DirectionENE (50.9 °)

Weather ElementTotal
Precipitation0.03 in
Cooling Degree Days13.7 (Base 65)
Growing Degree Days28.7 (Base 50)
Averaged from 181 records on February 17, 2013
WEATHER CONDITIONS BREAKOUT
WIND DIRECTION BREAKOUT
WEATHER BY HOUR - FEBRUARY 17, 2013
[ °C ]   °F
Local TimeTemperatureDewpointHumidityBarometerVisibilityWind DirectionWind SpeedGust SpeedPrecipitationEventsConditions
12:34 AM77.0 °F71.6 °F83 %29.79 in10.0 miENE (60°)16.1 mphMostly Cloudy
12:35 AM77.0 °F71.6 °F83 %29.79 in10.0 miENE (60°)16.1 mphMostly Cloudy
12:55 AM77.9 °F72.5 °F83 %29.79 in10.0 miNE (50°)18.4 mphOvercast
1:26 AM77.0 °F71.6 °F83 %29.78 in10.0 miNE (50°)17.3 mphMostly Cloudy
1:29 AM77.0 °F71.6 °F83 %29.78 in10.0 miNE (40°)19.6 mphMostly Cloudy
1:32 AM77.0 °F71.6 °F83 %29.78 in10.0 miNE (50°)21.9 mphMostly Cloudy
1:40 AM77.0 °F71.6 °F83 %29.78 in10.0 miNE (50°)18.4 mphMostly Cloudy
1:42 AM77.0 °F71.6 °F83 %29.78 in10.0 miNE (50°)19.6 mphMostly Cloudy
1:55 AM77.5 °F72.1 °F83 %29.78 in10.0 miNE (50°)19.6 mph26.5 mphScattered Clouds
2:17 AM77.0 °F71.6 °F83 %29.78 in10.0 miNE (50°)13.8 mphMostly Cloudy
2:18 AM77.0 °F71.6 °F83 %29.78 in10.0 miNE (50°)16.1 mphMostly Cloudy
2:21 AM77.0 °F71.6 °F83 %29.78 in10.0 miNE (40°)18.4 mph24.2 mphMostly Cloudy
2:24 AM77.0 °F71.6 °F83 %29.78 in10.0 miNE (50°)18.4 mph24.2 mphMostly Cloudy
2:25 AM77.0 °F71.6 °F83 %29.78 in10.0 miNE (50°)17.3 mph24.2 mphMostly Cloudy
2:41 AM77.0 °F71.6 °F83 %29.77 in10.0 miNE (50°)17.3 mphMostly Cloudy
2:52 AM77.0 °F71.6 °F83 %29.77 in10.0 miNE (40°)17.3 mphMostly Cloudy
2:55 AM77.5 °F71.6 °F82 %29.77 in10.0 miNE (50°)18.4 mphMostly Cloudy
2:58 AM77.0 °F71.6 °F83 %29.77 in10.0 miNE (50°)18.4 mphScattered Clouds
3:09 AM77.0 °F71.6 °F83 %29.76 in10.0 miNE (40°)18.4 mphMostly Cloudy
3:13 AM77.0 °F71.6 °F83 %29.76 in10.0 miNE (40°)16.1 mphScattered Clouds
3:21 AM77.0 °F73.4 °F89 %29.76 in10.0 miNE (40°)18.4 mph24.2 mphMostly Cloudy
3:45 AM77.0 °F71.6 °F83 %29.76 in10.0 miENE (60°)16.1 mphRainLight Rain
3:55 AM76.8 °F72.7 °F87 %29.76 in10.0 miNE (40°)21.9 mph0.00 inRainLight Rain
4:03 AM77.0 °F73.4 °F89 %29.76 in10.0 miNE (50°)20.7 mph25.3 mphMostly Cloudy
4:05 AM77.0 °F71.6 °F83 %29.76 in10.0 miNE (50°)19.6 mph25.3 mphRainLight Rain
4:26 AM77.0 °F71.6 °F83 %29.76 in10.0 miENE (60°)19.6 mphMostly Cloudy
4:55 AM76.6 °F70.9 °F82 %29.76 in10.0 miNE (50°)20.7 mph0.01 inPartly Cloudy
5:30 AM77.0 °F73.4 °F89 %29.77 in10.0 miNNE (30°)20.7 mphMostly Cloudy
5:35 AM77.0 °F73.4 °F89 %29.77 in10.0 miNNE (30°)17.3 mphMostly Cloudy
5:41 AM77.0 °F73.4 °F89 %29.77 in10.0 miNE (40°)15.0 mphMostly Cloudy
5:55 AM77.2 °F71.8 °F83 %29.78 in10.0 miNE (40°)17.3 mphOvercast
6:03 AM77.0 °F71.6 °F83 %29.78 in10.0 miNE (40°)19.6 mphMostly Cloudy
6:09 AM77.0 °F71.6 °F83 %29.78 in10.0 miNE (40°)19.6 mphMostly Cloudy
6:10 AM77.0 °F71.6 °F83 %29.78 in10.0 miNE (50°)18.4 mphMostly Cloudy
6:11 AM77.0 °F71.6 °F83 %29.78 in10.0 miNE (40°)18.4 mphMostly Cloudy
6:24 AM77.0 °F71.6 °F83 %29.79 in10.0 miNE (40°)20.7 mphMostly Cloudy
6:36 AM77.0 °F71.6 °F83 %29.79 in10.0 miNE (40°)19.6 mph27.6 mphMostly Cloudy
6:40 AM77.0 °F71.6 °F83 %29.79 in10.0 miNE (40°)23.0 mphScattered Clouds
6:47 AM77.0 °F71.6 °F83 %29.80 in10.0 miNE (50°)18.4 mphMostly Cloudy
6:55 AM77.5 °F71.8 °F82 %29.80 in10.0 miNE (40°)18.4 mphMostly Cloudy
7:03 AM77.0 °F71.6 °F83 %29.80 in10.0 miNNE (30°)23.0 mph26.5 mphLight Drizzle
7:13 AM77.0 °F71.6 °F83 %29.80 in10.0 miNNE (30°)20.7 mphOvercast
7:53 AM78.8 °F71.6 °F78 %29.81 in10.0 miNE (40°)23.0 mph32.2 mphMostly Cloudy
7:55 AM78.4 °F70.9 °F77 %29.81 in10.0 miNE (40°)23.0 mph32.2 mph0.00 inMostly Cloudy
8:24 AM78.8 °F71.6 °F78 %29.82 in10.0 miNE (40°)21.9 mph29.9 mphMostly Cloudy
8:31 AM80.6 °F69.8 °F70 %29.82 in10.0 miNE (40°)23.0 mphScattered Clouds
8:55 AM80.8 °F70.5 °F71 %29.83 in10.0 miNE (40°)23.0 mphClear
9:44 AM80.6 °F71.6 °F74 %29.83 in10.0 miNNE (30°)23.0 mph28.8 mphMostly Cloudy
9:55 AM81.3 °F72.1 °F74 %29.83 in10.0 miNE (50°)23.0 mph28.8 mphMostly Cloudy
10:03 AM82.4 °F71.6 °F70 %29.83 in10.0 miNE (50°)23.0 mph32.2 mphScattered Clouds
10:06 AM82.4 °F73.4 °F74 %29.83 in10.0 miNE (50°)24.2 mph32.2 mphMostly Cloudy
10:09 AM82.4 °F71.6 °F70 %29.83 in10.0 miNE (40°)25.3 mph32.2 mphScattered Clouds
10:55 AM83.8 °F70.3 °F64 %29.82 in10.0 miNE (40°)23.0 mph27.6 mphClear
11:55 AM84.0 °F71.4 °F66 %29.81 in10.0 miNE (40°)20.7 mphClear
12:55 PM81.7 °F70.9 °F70 %29.79 in10.0 miNE (40°)24.2 mph33.4 mphMostly Cloudy
1:00 PM80.6 °F73.4 °F79 %29.79 in9.0 miNNE (30°)21.9 mph33.4 mphLight Drizzle
1:04 PM80.6 °F73.4 °F79 %29.79 in6.0 miNE (40°)24.2 mph31.1 mphRainHeavy Rain
1:13 PM78.8 °F73.4 °F83 %29.79 in7.0 miNE (40°)20.7 mphRainLight Rain
1:14 PM78.8 °F73.4 °F83 %29.79 in8.0 miNNE (30°)20.7 mphMostly Cloudy
1:24 PM78.8 °F73.4 °F83 %29.78 in10.0 miNNE (30°)13.8 mph24.2 mphMostly Cloudy
1:52 PM80.6 °F73.4 °F79 %29.77 in10.0 miNE (40°)21.9 mphMostly Cloudy
1:54 PM80.6 °F73.4 °F79 %29.77 in10.0 miNE (40°)24.2 mphMostly Cloudy
1:55 PM80.4 °F72.3 °F76 %29.77 in10.0 miNE (40°)24.2 mph0.01 inMostly Cloudy
2:05 PM80.6 °F71.6 °F74 %29.77 in10.0 miNE (40°)23.0 mph33.4 mphMostly Cloudy
2:43 PM80.6 °F71.6 °F74 %29.75 in10.0 miNE (40°)24.2 mph31.1 mphMostly Cloudy
2:48 PM80.6 °F71.6 °F74 %29.75 in10.0 miNE (40°)26.5 mph31.1 mphMostly Cloudy
2:49 PM80.6 °F71.6 °F74 %29.75 in10.0 miNE (40°)25.3 mph31.1 mphMostly Cloudy
2:55 PM80.8 °F72.1 °F75 %29.75 in10.0 miNE (40°)23.0 mph29.9 mphOvercast
2:59 PM80.6 °F71.6 °F74 %29.75 in10.0 miNE (40°)24.2 mph29.9 mphOvercast
3:01 PM80.6 °F71.6 °F74 %29.75 in10.0 miNE (40°)24.2 mph29.9 mphOvercast
3:03 PM80.6 °F71.6 °F74 %29.75 in10.0 miNE (40°)24.2 mph29.9 mphOvercast
3:16 PM78.8 °F73.4 °F83 %29.74 in10.0 miENE (60°)16.1 mph24.2 mphOvercast
3:21 PM78.8 °F73.4 °F83 %29.75 in7.0 miNE (50°)27.6 mph31.1 mphRainRain
3:23 PM78.8 °F73.4 °F83 %29.75 in5.0 miNE (40°)27.6 mph31.1 mphRainRain
3:26 PM77.0 °F73.4 °F89 %29.75 in4.0 miNNE (30°)19.6 mph31.1 mphRainLight Rain
3:29 PM77.0 °F73.4 °F89 %29.75 in4.0 miNE (50°)24.2 mph33.4 mphRainLight Rain
3:31 PM77.0 °F73.4 °F89 %29.75 in4.0 miENE (60°)26.5 mph33.4 mphRainLight Rain
3:32 PM77.0 °F73.4 °F89 %29.75 in4.0 miENE (60°)27.6 mph33.4 mphRainLight Rain
3:36 PM75.2 °F73.4 °F94 %29.75 in4.0 miENE (70°)21.9 mph33.4 mphRainLight Rain
3:47 PM75.2 °F73.4 °F94 %29.75 in5.0 miENE (60°)26.5 mph34.5 mphLight Drizzle
3:52 PM75.2 °F73.4 °F94 %29.75 in3.0 miENE (60°)24.2 mph34.5 mphOvercast
3:53 PM75.2 °F73.4 °F94 %29.75 in3.0 miENE (60°)21.9 mph34.5 mphRainLight Rain
3:55 PM74.7 °F72.9 °F94 %29.75 in3.0 miENE (60°)20.7 mph34.5 mph0.01 inRainLight Rain
3:57 PM75.2 °F73.4 °F94 %29.75 in3.0 miNE (50°)20.7 mph34.5 mphOvercast
4:02 PM75.2 °F71.6 °F89 %29.75 in8.0 miENE (60°)20.7 mph26.5 mphOvercast
4:09 PM75.2 °F71.6 °F89 %29.75 in10.0 miENE (60°)24.2 mph29.9 mphOvercast
4:19 PM75.2 °F73.4 °F94 %29.75 in10.0 miENE (60°)24.2 mph34.5 mphOvercast
4:23 PM75.2 °F73.4 °F94 %29.75 in10.0 miENE (60°)23.0 mph29.9 mphOvercast
4:31 PM75.2 °F71.6 °F89 %29.75 in10.0 miNE (50°)20.7 mph25.3 mphOvercast
4:40 PM77.0 °F73.4 °F89 %29.75 in10.0 miNE (50°)20.7 mph25.3 mphMostly Cloudy
4:55 PM77.2 °F73.8 °F89 %29.75 in10.0 miNE (50°)21.9 mph29.9 mph0.00 inMostly Cloudy
4:56 PM77.0 °F73.4 °F89 %29.76 in10.0 miENE (60°)25.3 mph31.1 mphLight Drizzle
4:58 PM77.0 °F73.4 °F89 %29.75 in9.0 miENE (60°)24.2 mph31.1 mphLight Drizzle
5:09 PM75.2 °F73.4 °F94 %29.77 in7.0 miNE (50°)26.5 mph32.2 mphOvercast
5:16 PM75.2 °F71.6 °F89 %29.77 in7.0 miNE (50°)23.0 mph31.1 mphLight Drizzle
5:30 PM75.2 °F73.4 °F94 %29.77 in2.5 miNE (40°)25.3 mph31.1 mphRainRain
5:32 PM75.2 °F73.4 °F94 %29.77 in2.0 miNE (40°)25.3 mph32.2 mphRainHeavy Rain
5:34 PM75.2 °F71.6 °F89 %29.77 in2.0 miNE (40°)26.5 mph33.4 mphRainHeavy Rain
5:37 PM73.4 °F71.6 °F94 %29.77 in2.5 miNE (40°)25.3 mph33.4 mphRainLight Rain
5:38 PM73.4 °F71.6 °F94 %29.77 in3.0 miNE (50°)25.3 mph33.4 mphRainLight Rain
5:51 PM75.2 °F71.6 °F89 %29.77 in8.0 miENE (60°)21.9 mph31.1 mphOvercast
5:52 PM75.2 °F71.6 °F89 %29.77 in6.0 miENE (60°)26.5 mph31.1 mphLight Drizzle
5:55 PM74.8 °F72.1 °F91 %29.78 in4.0 miENE (60°)24.2 mph33.4 mph0.00 inLight Drizzle
5:59 PM75.2 °F71.6 °F89 %29.78 in4.0 miENE (60°)28.8 mph36.8 mphLight Drizzle
6:07 PM73.4 °F73.4 °F100 %29.78 in2.5 miENE (60°)25.3 mph36.8 mphRainLight Rain
6:09 PM73.4 °F71.6 °F94 %29.78 in2.5 miENE (60°)25.3 mph36.8 mphOvercast
6:10 PM73.4 °F71.6 °F94 %29.79 in2.0 miENE (60°)23.0 mph35.7 mphOvercast
6:11 PM73.4 °F71.6 °F94 %29.79 in2.5 miENE (60°)23.0 mph35.7 mphRainLight Rain
6:12 PM73.4 °F71.6 °F94 %29.79 in2.5 miENE (60°)24.2 mph35.7 mphRainLight Rain
6:14 PM73.4 °F71.6 °F94 %29.78 in2.5 miNE (50°)21.9 mph29.9 mphRainLight Rain
6:15 PM73.4 °F71.6 °F94 %29.78 in3.0 miNE (50°)20.7 mph29.9 mphRainLight Rain
6:24 PM73.4 °F71.6 °F94 %29.78 in9.0 miENE (60°)19.6 mph26.5 mphOvercast
6:36 PM75.2 °F71.6 °F89 %29.78 in10.0 miENE (60°)21.9 mph26.5 mphOvercast
6:39 PM75.2 °F71.6 °F89 %29.78 in8.0 miENE (70°)20.7 mph26.5 mphOvercast
6:40 PM75.2 °F71.6 °F89 %29.78 in7.0 miENE (70°)20.7 mph26.5 mphRainLight Rain
6:43 PM75.2 °F73.4 °F94 %29.79 in5.0 miENE (60°)21.9 mph29.9 mphLight Drizzle
6:44 PM75.2 °F73.4 °F94 %29.79 in5.0 miENE (70°)20.7 mph29.9 mphRainLight Rain
6:46 PM75.2 °F73.4 °F94 %29.79 in4.0 miENE (60°)25.3 mph29.9 mphRainLight Rain
6:55 PM73.9 °F71.6 °F92 %29.79 in7.0 miENE (60°)25.3 mph32.2 mph0.00 inRainLight Rain
6:57 PM73.4 °F71.6 °F94 %29.79 in8.0 miENE (70°)24.2 mph32.2 mphMostly Cloudy
7:06 PM73.4 °F71.6 °F94 %29.80 in10.0 miENE (70°)24.2 mph31.1 mphOvercast
7:07 PM73.4 °F73.4 °F100 %29.80 in10.0 miENE (70°)23.0 mph31.1 mphOvercast
7:08 PM73.4 °F73.4 °F100 %29.80 in10.0 miEast (80°)21.9 mph31.1 mphOvercast
7:10 PM73.4 °F71.6 °F94 %29.80 in9.0 miEast (80°)24.2 mph29.9 mphOvercast
7:17 PM73.4 °F71.6 °F94 %29.80 in6.0 miEast (80°)20.7 mph31.1 mphRainLight Rain
7:40 PM73.4 °F71.6 °F94 %29.81 in4.0 miENE (60°)19.6 mphLight Drizzle
7:52 PM73.4 °F73.4 °F100 %29.81 in9.0 miNE (50°)19.6 mph26.5 mphOvercast
7:54 PM73.4 °F73.4 °F100 %29.81 in8.0 miENE (60°)24.2 mph29.9 mphOvercast
7:55 PM73.9 °F72.7 °F96 %29.81 in7.0 miENE (60°)26.5 mph35.7 mph0.00 inOvercast
7:59 PM73.4 °F71.6 °F94 %29.81 in6.0 miNE (50°)24.2 mph35.7 mphRainLight Rain
8:17 PM73.4 °F71.6 °F94 %29.82 in10.0 miNE (50°)20.7 mphOvercast
8:46 PM75.2 °F73.4 °F94 %29.82 in10.0 miNE (40°)19.6 mph26.5 mphMostly Cloudy
8:51 PM75.2 °F73.4 °F94 %29.82 in10.0 miNE (40°)20.7 mph26.5 mphOvercast
8:55 PM74.5 °F73.0 °F95 %29.82 in10.0 miNE (40°)19.6 mph26.5 mph0.00 inMostly Cloudy
9:00 PM75.2 °F73.4 °F94 %29.82 in7.0 miNE (40°)21.9 mphLight Drizzle
9:01 PM75.2 °F73.4 °F94 %29.82 in7.0 miNE (40°)21.9 mphLight Drizzle
9:08 PM73.4 °F73.4 °F100 %29.82 in8.0 miNE (50°)20.7 mphLight Drizzle
9:09 PM73.4 °F73.4 °F100 %29.82 in8.0 miNE (50°)21.9 mphOvercast
9:10 PM73.4 °F73.4 °F100 %29.82 in9.0 miNE (50°)20.7 mphOvercast
9:16 PM73.4 °F73.4 °F100 %29.82 in5.0 miNE (50°)17.3 mph27.6 mphRainLight Rain
9:17 PM73.4 °F73.4 °F100 %29.82 in5.0 miNE (50°)18.4 mph27.6 mphRainLight Rain
9:19 PM73.4 °F73.4 °F100 %29.82 in4.0 miNE (50°)23.0 mph27.6 mphRainLight Rain
9:29 PM73.4 °F73.4 °F100 %29.83 in6.0 miNE (50°)19.6 mph27.6 mphLight Drizzle
9:30 PM73.4 °F73.4 °F100 %29.82 in6.0 miNE (50°)18.4 mph27.6 mphLight Drizzle
9:32 PM73.4 °F73.4 °F100 %29.82 in7.0 miNE (50°)18.4 mph27.6 mphOvercast
9:33 PM73.4 °F73.4 °F100 %29.82 in7.0 miNE (50°)19.6 mph27.6 mphLight Drizzle
9:36 PM73.4 °F73.4 °F100 %29.82 in6.0 miNE (50°)23.0 mph29.9 mphOvercast
9:37 PM73.4 °F73.4 °F100 %29.83 in6.0 miNE (50°)23.0 mph29.9 mphRainLight Rain
9:48 PM73.4 °F73.4 °F100 %29.83 in4.0 miNE (50°)19.6 mph26.5 mphOvercast
9:49 PM73.4 °F73.4 °F100 %29.83 in3.0 miENE (60°)19.6 mph26.5 mphRainLight Rain
9:50 PM73.4 °F73.4 °F100 %29.83 in2.5 miENE (60°)20.7 mph28.8 mphRainHeavy Rain
9:55 PM74.1 °F72.9 °F96 %29.83 in2.5 miENE (60°)20.7 mph28.8 mph0.00 inRainLight Rain
10:11 PM73.4 °F71.6 °F94 %29.83 in3.0 miNE (50°)29.9 mphRainLight Rain
10:17 PM73.4 °F71.6 °F94 %29.83 in2.5 miNE (50°)21.9 mphRainLight Rain
10:19 PM73.4 °F71.6 °F94 %29.83 in2.5 miENE (60°)26.5 mph31.1 mphRainLight Rain
10:22 PM73.4 °F71.6 °F94 %29.83 in2.5 miNE (50°)24.2 mph31.1 mphRainLight Rain
10:25 PM73.4 °F71.6 °F94 %29.83 in2.0 miENE (60°)26.5 mph32.2 mphRainLight Rain
10:27 PM73.4 °F73.4 °F100 %29.83 in2.5 miENE (60°)27.6 mph33.4 mphRainLight Rain
10:30 PM73.4 °F73.4 °F100 %29.83 in2.5 miENE (60°)27.6 mph33.4 mphOvercast
10:32 PM73.4 °F73.4 °F100 %29.83 in2.5 miENE (60°)24.2 mph33.4 mphOvercast
10:33 PM73.4 °F73.4 °F100 %29.83 in2.5 miENE (60°)26.5 mph33.4 mphRainLight Rain
10:34 PM73.4 °F71.6 °F94 %29.83 in2.5 miENE (60°)28.8 mph33.4 mphRainLight Rain
10:36 PM73.4 °F71.6 °F94 %29.83 in2.5 miENE (60°)24.2 mph33.4 mphRainLight Rain
10:37 PM73.4 °F71.6 °F94 %29.83 in2.5 miENE (60°)24.2 mph32.2 mphRainLight Rain
10:38 PM73.4 °F71.6 °F94 %29.83 in3.0 miENE (60°)24.2 mph32.2 mphRainLight Rain
10:40 PM73.4 °F71.6 °F94 %29.83 in3.0 miENE (70°)19.6 mph32.2 mphRainLight Rain
10:44 PM73.4 °F71.6 °F94 %29.83 in4.0 miENE (70°)23.0 mph28.8 mphOvercast
10:45 PM73.4 °F71.6 °F94 %29.83 in5.0 miENE (70°)23.0 mph28.8 mphRainLight Rain
10:46 PM73.4 °F71.6 °F94 %29.83 in5.0 miENE (70°)21.9 mph28.8 mphLight Drizzle
10:55 PM73.4 °F72.1 °F96 %29.83 in9.0 miENE (70°)16.1 mph0.00 inMostly Cloudy
10:58 PM73.4 °F71.6 °F94 %29.82 in9.0 miENE (70°)16.1 mphOvercast
11:10 PM75.2 °F71.6 °F89 %29.82 in10.0 miNE (50°)19.6 mph27.6 mphMostly Cloudy
11:26 PM75.2 °F71.6 °F89 %29.83 in6.0 miNE (50°)31.1 mph36.8 mphRainLight Rain
11:29 PM75.2 °F71.6 °F89 %29.83 in5.0 miNE (50°)25.3 mph36.8 mphRainLight Rain
11:39 PM73.4 °F71.6 °F94 %29.83 in10.0 miNE (50°)21.9 mph32.2 mphRainLight Rain
11:40 PM73.4 °F71.6 °F94 %29.83 in10.0 miNE (50°)23.0 mph32.2 mphRainLight Rain
11:41 PM75.2 °F71.6 °F89 %29.83 in10.0 miNE (50°)25.3 mph32.2 mphRainLight Rain
11:42 PM75.2 °F71.6 °F89 %29.82 in10.0 miNE (50°)25.3 mph32.2 mphRainLight Rain
11:46 PM75.2 °F71.6 °F89 %29.82 in10.0 miNE (50°)19.6 mph29.9 mphOvercast
11:51 PM75.2 °F69.8 °F83 %29.82 in10.0 miNE (50°)24.2 mphOvercast
11:55 PM74.8 °F69.8 °F84 %29.82 in10.0 miNE (50°)21.9 mph0.00 inOvercast
Hourly data recorded from PGUA, located miles away from Mangilao, Guam







STORIES FROM OUR PARTNERS